www.pogodaiklimat.ru

Погода и климат >> Архив погоды >> Швейцария >> Матод


ПОГОДА в Матоде

  • Прогноз погоды в Матоде
  • Монитор погоды в Матоде

АРХИВ ПОГОДЫ в Матоде

Время (UTC), дата Ветер
(напр.,м/с)
 
Видим.   Явления Облачность Т
(С)
Тd
(С)
f
(%)
Тe
(С)
Тes
(С)
Комфортность P
(гПа)
Po
(гПа)
Тmin
(С)
Tmax
(С)
R
(мм)
R24
(мм)
S
(см)
13 13.07 СВ 3
{8}
н/о н/о +24.5 +9.1 38 +25 +25 комфорт 1015.5 966.3
14 13.07 СВ 5
{8}
н/о н/о +24.3 +9.5 39 +25 +25 комфорт 1015.5 966.2
15 13.07 С 5
{8}
н/о н/о +25.2 +9.0 36 +26 +26 жарко 1015.0 965.9
16 13.07 С 3
{8}
н/о н/о +25.0 +9.3 37 +26 +26 жарко 1015.1 966.0
17 13.07 С 5
{9}
н/о н/о +23.1 +9.5 42 +25 +25 комфорт 1015.4 965.9
18 13.07 СВ 2
{9}
н/о н/о +21.3 +10.8 51 +23 +23 комфорт 1016.0 966.2 +25.4
19 13.07 СВ 3
{6}
н/о н/о +19.7 +10.2 54 +21 +21 комфорт 1016.7 966.6
20 13.07 СВ 2
{5}
н/о н/о +18.6 +10.0 57 +20 +20 1017.1 966.8
21 13.07 С 3
{6}
н/о н/о +15.5 +10.3 71 +15 +15 1017.6 966.7
22 13.07 СЗ 1
{3}
н/о н/о +13.9 +12.4 91 +14 +14 1017.9 966.7
23 13.07 З 1
{3}
н/о н/о +13.6 +11.7 88 +15 +15 1017.6 966.3
00 14.07 ЮВ 1
{6}
н/о н/о +10.9 +10.9 100 +11 +11 1017.9 966.1
01 14.07 ЮВ 1
{2}
н/о н/о +10.4 +10.4 100 +11 +11 1017.5 965.7
02 14.07 ЮЗ 2
{2}
н/о н/о +11.1 +11.1 100 +10 +10 1017.1 965.4
03 14.07 Ю 1
{2}
н/о н/о +10.4 +10.4 100 +11 +11 1016.7 964.9
04 14.07 Ю 1
{2}
н/о н/о +10.5 +10.5 100 +10 +10 1016.6 964.8
05 14.07 Ю 1
{2}
н/о н/о +10.8 +10.8 100 +11 +11 1016.4 964.7
06 14.07 Ю 1
{2}
н/о н/о +14.7 +14.0 96 +16 +16 1015.5 964.5 +9.0
07 14.07 С 3
{5}
н/о н/о +18.4 +12.7 69 +19 +19 1014.8 964.5
08 14.07 СВ 6
{9}
н/о н/о +19.5 +12.8 65 +21 +21 комфорт 1014.6 964.5
09 14.07 СВ 5
{9}
н/о н/о +21.1 +12.3 57 +23 +23 комфорт 1013.9 964.2
10 14.07 СВ 6
{10}
н/о н/о +22.2 +11.9 52 +25 +25 комфорт 1013.2 963.7
11 14.07 СВ 5
{8}
н/о н/о +23.4 +10.0 43 +25 +25 комфорт 1012.7 963.4
12 14.07 СВ 6
{10}
н/о н/о +24.3 +9.5 39 +25 +25 комфорт 1012.0 962.9
13 14.07 СВ 6
{8}
н/о н/о +24.7 +9.6 38 +25 +25 комфорт 1011.3 962.3
14 14.07 СВ 5
{9}
н/о н/о +24.3 +9.6 39 +25 +25 комфорт 1011.1 962.0
15 14.07 СВ 5
{9}
н/о н/о +23.2 +10.2 44 +25 +25 комфорт 1011.0 961.8
16 14.07 С 4
{7}
н/о н/о +22.9 +11.6 49 +25 +25 комфорт 1011.0 961.7
17 14.07
{10}
н/о н/о +20.8 +12.3 58 1011.8 962.1
18 14.07 СВ 5
{10}
н/о н/о +19.3 +11.6 61 +20 +20 1012.6 962.6 +24.8
19 14.07 СВ 4
{8}
н/о н/о +18.0 +12.1 68 +18 +18 1013.4 963.1
20 14.07 СВ 5
{12}
н/о н/о +17.9 +12.1 69 +17 +17 1013.9 963.6
21 14.07 С 4
{12}
н/о н/о +16.8 +11.5 71 +16 +16 1014.3 963.8
22 14.07 СВ 4
{7}
н/о н/о +16.1 +12.3 78 +15 +15 1015.0 964.3
23 14.07 СВ 5
{9}
н/о н/о +15.5 +12.5 82 +14 +14 1014.6 963.8
00 15.07 СВ 5
{12}
н/о н/о +15.3 +13.9 91 +14 +14 1014.3 963.5
01 15.07 В 4
{8}
н/о н/о +15.2 +13.7 91 +14 +14 1014.4 963.6
02 15.07 СВ 2
{7}
н/о н/о +14.7 +13.7 94 +15 +15 1014.0 963.1
03 15.07 СВ 3
{8}
н/о н/о +14.9 +14.1 95 +14 +14 1013.8 963.0
04 15.07 СВ 2
{7}
н/о н/о +14.8 +14.6 99 +15 +15 1014.0 963.1
05 15.07 СВ 3
{5}
н/о н/о +14.2 +14.2 100 +13 +13 1014.2 963.2 1
06 15.07 СВ 2
{8}
н/о н/о +14.5 +14.5 100 +14 +14 1014.1 963.2 +14.2 0.3
07 15.07 СВ 2
{4}
н/о н/о +15.2 +15.2 100 +15 +15 1014.4 963.6
08 15.07 СВ 4
{7}
н/о н/о +16.6 +15.5 93 +16 +16 1014.7 964.1
09 15.07 СВ 8
{12}
н/о н/о +17.7 +14.8 83 +17 +17 1014.5 964.1 0.1
10 15.07 СВ 8
{12}
н/о н/о +18.6 +14.8 79 +19 +19 1014.3 964.1 0.2
11 15.07 СВ 7
{11}
н/о н/о +19.4 +14.5 73 +20 +20 1014.3 964.2 0.1
12 15.07 СВ 9
{14}
н/о н/о +20.3 +13.0 63 +22 +22 комфорт 1014.2 964.3 0.1
13 15.07 СВ 9
{13}
н/о н/о +21.1 +12.4 58 +23 +23 комфорт 1014.1 964.3
14 15.07 СВ 9
{13}
н/о н/о +21.8 +12.0 54 +24 +24 комфорт 1014.1 964.5
15 15.07 СВ 8
{13}
н/о н/о +22.3 +12.1 52 +25 +25 комфорт 1014.0 964.5
16 15.07 СВ 6
{11}
н/о н/о +21.4 +12.2 56 +24 +24 комфорт 1014.0 964.3 0.1
17 15.07 СВ 6
{9}
н/о н/о +21.5 +12.5 57 +24 +24 комфорт 1014.2 964.5
18 15.07 СВ 4
{13}
н/о н/о +20.5 +13.6 65 +23 +23 комфорт 1014.7 964.8 +22.3
19 15.07 С 2
{6}
н/о н/о +18.8 +13.2 70 +20 +20 1015.3 965.1
20 15.07 С 2
{3}
н/о н/о +16.4 +14.5 89 +16 +16 1016.1 965.4
21 15.07 СЗ 2
{6}
н/о н/о +14.3 +13.7 96 +14 +14 1016.9 965.8
22 15.07 З 1
{2}
н/о н/о +13.5 +13.5 100 +14 +14 1017.4 966.1
23 15.07 Ю 2
{3}
н/о н/о +13.1 +13.1 100 +13 +13 1017.7 966.3
00 16.07 СВ 1
{6}
н/о н/о +11.1 +11.1 100 +12 +12 1017.9 966.2
01 16.07 СЗ 1
{2}
н/о н/о +11.4 +11.4 100 +11 +11 1018.0 966.3
02 16.07 ЮЗ 2
{3}
н/о н/о +11.5 +11.5 100 +11 +11 1018.1 966.4
03 16.07 ЮЗ 1
{3}
н/о н/о +10.9 +10.9 100 +10 +10 1018.2 966.4
04 16.07 штиль 0
{2}
н/о н/о +9.4 +9.4 100 +8 +8 1018.6 966.5
05 16.07 ЮВ 1
{2}
н/о н/о +10.6 +10.6 100 +11 +11 1018.7 966.8
06 16.07 С 1
{3}
н/о н/о +14.6 +14.6 100 +15 +15 1017.8 966.7 +9.4
07 16.07 СВ 3
{4}
н/о н/о +17.9 +16.7 93 +18 +18 1017.5 967.0
08 16.07 СВ 4
{8}
н/о н/о +19.7 +14.3 71 +22 +22 комфорт 1017.0 966.9
09 16.07 СВ 3
{8}
н/о н/о +20.6 +14.2 67 +24 +24 комфорт 1016.8 966.8
10 16.07 СВ 3
{6}
н/о н/о +22.0 +14.0 60 +25 +25 комфорт 1016.1 966.4
11 16.07 СВ 3
{7}
н/о н/о +23.5 +13.8 54 +26 +26 жарко 1015.6 966.2 0.2
12 16.07 С 3
{8}
н/о н/о +25.4 +10.2 38 +26 +26 жарко 1014.6 965.6
13 16.07 С 3
{6}
н/о н/о +26.2 +11.7 40 +27 +27 жарко 1014.1 965.2
14 16.07 СВ 3
{6}
н/о н/о +26.6 +11.0 38 +28 +28 жарко 1013.8 965.0
15 16.07 СВ 3
{6}
н/о н/о +26.9 +11.7 39 +28 +28 жарко 1013.4 964.7
16 16.07 С 3
{5}
н/о н/о +27.0 +11.1 37 +28 +28 жарко 1013.1 964.4
17 16.07 СВ 3
{5}
н/о н/о +26.3 +12.1 41 +28 +28 жарко 1013.1 964.3
18 16.07 С 2
{6}
н/о н/о +25.5 +12.6 45 +27 +27 жарко 1013.4 964.4 +27.1
19 16.07
{3}
н/о н/о +21.6 +14.2 63 1014.3 964.6
20 16.07 В 1
{2}
н/о н/о +19.9 +13.3 66 +23 +23 комфорт 1015.0 965.0
21 16.07 ЮЗ 2
{3}
н/о н/о +17.2 +13.5 79 +18 +18 1015.7 965.2
22 16.07 З 1
{3}
н/о н/о +14.7 +13.9 95 +16 +16 1016.2 965.2
23 16.07 ЮЗ 1
{2}
н/о н/о +14.2 +13.7 97 +15 +15 1016.5 965.4
00 17.07 ЮЗ 1
{3}
н/о н/о +12.8 +12.8 100 +13 +13 1016.8 965.4
01 17.07 ЮЗ 1
{2}
н/о н/о +11.8 +11.8 100 +11 +11 1016.7 965.2
02 17.07 Ю 1
{2}
н/о н/о +11.1 +11.1 100 +12 +12 1016.7 965.0
03 17.07 С 1
{2}
н/о н/о +10.4 +10.4 100 +11 +11 1016.6 964.8
04 17.07 СВ 1
{1}
н/о н/о +9.7 +9.7 100 +10 +10 1016.7 964.8
05 17.07 З 1
{1}
н/о н/о +11.0 +11.0 100 +11 +11 1016.5 964.8
06 17.07 Ю 1
{2}
н/о н/о +14.6 +14.2 97 +16 +16 1015.9 964.9 +9.7
07 17.07 В 1
{2}
н/о н/о +17.8 +14.6 82 +19 +19 1015.2 964.8
08 17.07 ЮЗ 1
{3}
н/о н/о +20.7 +13.6 64 +25 +25 комфорт 1014.4 964.6
09 17.07 ЮЗ 2
{4}
н/о н/о +22.8 +12.5 52 +26 +26 жарко 1013.7 964.3
10 17.07 ЮЗ 2
{4}
н/о н/о +24.3 +12.0 46 +26 +26 жарко 1013.1 963.9
11 17.07 Ю 2
{4}
н/о н/о +26.0 +12.4 43 +28 +28 жарко 1012.4 963.6 0.2
12 17.07 Ю 1
{6}
н/о н/о +26.7 +12.3 41 +28 +28 жарко 1011.8 963.1 0.3
13 17.07 Ю 2
{5}
н/о н/о +27.0 +11.5 38 +28 +28 жарко 1011.3 962.7
14 17.07 СВ 3
{6}
н/о н/о +27.4 +10.4 35 +28 +28 жарко 1011.0 962.5
15 17.07 СВ 3
{6}
н/о н/о +28.0 +9.6 32 +28 +28 жарко 1010.5 962.1
16 17.07 СЗ 3
{5}
н/о н/о +28.5 +6.3 25 +28 +28 жарко 1010.0 961.7
17 17.07 СЗ 4
{6}
н/о н/о +27.9 +5.1 23 +27 +27 жарко 1010.0 961.6
18 17.07 СЗ 2
{7}
н/о н/о +25.7 +5.3 27 +25 +25 комфорт 1010.6 961.8 +28.6
19 17.07 СЗ 2
{4}
н/о н/о +24.4 +4.5 28 +24 +24 комфорт 1011.0 962.0
20 17.07 СЗ 1
{5}
н/о н/о +21.1 +4.8 34 +21 +21 комфорт 1012.1 962.4
21 17.07 Ю 3
{5}
н/о н/о +18.3 +8.3 52 +19 +19 1012.9 962.7
22 17.07 З 1
{3}
н/о н/о +15.9 +9.1 64 +17 +17 1013.4 962.8
23 17.07 Ю 2
{3}
н/о н/о +13.6 +12.2 91 +13 +13 1014.3 963.2
00 18.07 З 2
{5}
н/о н/о +12.6 +11.8 95 +12 +12 1014.6 963.3
01 18.07 Ю 1
{2}
н/о н/о +12.8 +11.8 94 +14 +14 1014.6 963.3
02 18.07 Ю 1
{3}
н/о н/о +12.2 +11.8 97 +13 +13 1014.5 963.1
03 18.07 ЮЗ 2
{3}
н/о н/о +12.5 +12.0 97 +12 +12 1014.4 963.1
04 18.07 З 1
{2}
н/о н/о +11.1 +11.1 100 +11 +11 1015.1 963.5
05 18.07 Ю 1
{2}
н/о н/о +10.9 +10.9 100 +10 +10 1015.2 963.6
06 18.07 СЗ 1
{3}
н/о н/о +14.0 +12.9 93 +14 +14 1014.9 963.8 +10.0 0.5
07 18.07 Ю 2
{3}
н/о н/о +18.4 +11.5 64 +20 +20 1014.3 964.1
08 18.07 Ю 1
{3}
н/о н/о +21.6 +9.9 47 +23 +23 комфорт 1013.5 963.9 0.6
09 18.07 ЮЗ 1
{3}
н/о н/о +24.3 +8.9 38 +25 +25 комфорт 1012.9 963.8 0.3
10 18.07 Ю 2
{3}
н/о н/о +25.6 +10.0 37 +26 +26 жарко 1012.6 963.7
11 18.07 СВ 2
{6}
н/о н/о +26.3 +8.9 33 +27 +27 жарко 1012.3 963.5
12 18.07 С 2
{6}
н/о н/о +26.2 +9.0 34 +27 +27 жарко 1012.1 963.3 0.4
13 18.07 СВ 4
{6}
н/о н/о +27.7 +10.6 34 +28 +28 жарко 1011.5 963.0 0.1
14 18.07 С 2
{6}
н/о н/о +27.0 +9.5 33 +27 +27 жарко 1011.5 962.9 0.2
15 18.07 З 1
{6}
н/о н/о +26.3 +12.1 41 +28 +28 жарко 1011.5 962.8
16 18.07 СЗ 2
{5}
н/о н/о +27.0 +10.9 37 +28 +28 жарко 1011.3 962.7
17 18.07 СЗ 3
{6}
н/о н/о +26.5 +11.8 40 +28 +28 жарко 1011.5 962.8
18 18.07 СЗ 1
{6}
н/о н/о +25.2 +12.8 46 +27 +27 жарко 1012.2 963.2 +27.7
19 18.07 З 2
{5}
н/о н/о +23.5 +12.0 48 +25 +25 комфорт 1013.1 963.8
20 18.07 Ю 1
{3}
н/о н/о +20.2 +12.6 62 +23 +23 комфорт 1014.4 964.5
21 18.07 Ю 2
{5}
н/о н/о +18.9 +12.2 65 +21 +21 комфорт 1015.1 964.9
22 18.07 ЮВ 1
{3}
н/о н/о +17.6 +12.0 70 +19 +19 1015.4 965.0
23 18.07 ЮЗ 4
{7}
н/о н/о +20.4 +11.0 55 +22 +22 комфорт 1015.3 965.4
00 19.07 С 2
{7}
н/о н/о +14.9 +13.8 93 +15 +15 1016.5 965.5 0.1
01 19.07 С 1
{3}
н/о н/о +14.4 +13.8 96 +15 +15 1016.8 965.7
02 19.07 ЮВ 1
{2}
н/о н/о +14.8 +13.7 93 +15 +15 1016.8 965.8
03 19.07 Ю 1
{3}
н/о н/о +13.5 +12.9 96 +14 +14 1017.2 965.9
04 19.07 Ю 1
{3}
н/о н/о +13.1 +13.0 99 +13 +13 1017.3 966.0
05 19.07 Ю 3
{4}
н/о н/о +16.2 +13.7 85 +16 +16 1017.0 966.2
06 19.07 Ю 2
{4}
н/о н/о +17.9 +15.8 88 +18 +18 1016.9 966.4 +12.8
07 19.07 Ю 3
{4}
н/о н/о +20.5 +15.0 71 +24 +24 комфорт 1016.6 966.6
08 19.07 Ю 3
{5}
н/о н/о +22.5 +14.5 61 +26 +26 жарко 1016.1 966.5
09 19.07 Ю 2
{6}
н/о н/о +23.6 +13.7 54 +26 +26 жарко 1015.8 966.4
10 19.07 Ю 3
{6}
н/о н/о +24.5 +13.8 51 +27 +27 жарко 1015.4 966.2
11 19.07 Ю 3
{6}
н/о н/о +25.5 +14.1 49 +28 +28 жарко 1014.8 965.8
12 19.07 Ю 2
{6}
н/о н/о +26.5 +13.4 44 +28 +28 жарко 1014.3 965.5 0.1
13 19.07 ЮЗ 2
{6}
н/о н/о +27.3 +13.1 42 +29 +29 жарко 1013.7 965.0 0.1
14 19.07 ЮЗ 3
{6}
н/о н/о +27.8 +13.8 42 +30 +30 жарко 1013.2 964.6
15 19.07 Ю 3
{6}
н/о н/о +28.0 +13.7 41 +30 +30 жарко 1012.9 964.4
16 19.07 ЮЗ 2
{5}
н/о н/о +28.3 +13.9 41 +30 +30 жарко 1012.6 964.1 0.1
17 19.07 З 1
{4}
н/о н/о +28.7 +13.3 39 +30 +30 жарко 1012.2 963.8
18 19.07 СЗ 2
{6}
н/о н/о +27.5 +14.5 45 +30 +30 жарко 1012.4 963.8 +28.7
19 19.07 З 2
{3}
н/о н/о +24.3 +14.7 55 +27 +27 жарко 1013.2 964.0
20 19.07 Ю 1
{2}
н/о н/о +21.3 +15.5 70 +25 +25 комфорт 1014.1 964.4
21 19.07 ЮЗ 2
{3}
н/о н/о +19.3 +17.2 88 +22 +22 комфорт 1014.8 964.7
22 19.07 ЮЗ 1
{3}
н/о н/о +16.9 +16.5 97 +18 +18 1015.7 965.1
23 19.07 З 1
{2}
н/о н/о +15.6 +15.6 100 +16 +16 1016.0 965.2
00 20.07 Ю 1
{3}
н/о н/о +14.6 +14.6 100 +15 +15 1016.0 965.0
01 20.07 Ю 1
{2}
н/о н/о +13.2 +13.2 100 +13 +13 1016.3 965.0
02 20.07 ЮЗ 1
{2}
н/о н/о +13.9 +13.9 100 +14 +14 1016.0 964.9
03 20.07 ЮЗ 1
{2}
н/о н/о +12.8 +12.8 100 +13 +13 1016.3 965.0
04 20.07 ЮЗ 1
{2}
н/о н/о +12.2 +12.2 100 +12 +12 1016.6 965.1
05 20.07 ЮЗ 1
{2}
н/о н/о +13.5 +13.5 100 +14 +14 1016.7 965.5
06 20.07 СЗ 1
{2}
н/о н/о +16.7 +16.6 99 +18 +18 1016.4 965.8 +12.0
07 20.07 В 1
{2}
н/о н/о +19.6 +17.6 88 +24 +24 комфорт 1016.1 966.0
08 20.07 ЮЗ 3
{5}
н/о н/о +22.8 +15.3 63 +27 +27 душно 1015.6 966.1
09 20.07 Ю 3
{6}
н/о н/о +24.5 +15.9 59 +28 +28 душно 1015.2 966.0 0.4
10 20.07 Ю 6
{8}
н/о н/о +26.2 +16.2 54 +30 +30 душно 1014.9 966.0
11 20.07 Ю 9
{13}
н/о н/о +28.3 +15.0 44 +31 +31 душно 1014.4 965.9
12 20.07 Ю 8
{14}
н/о н/о +28.4 +13.4 40 +30 +30 жарко 1014.3 965.8
13 20.07 Ю 6
{12}
н/о н/о +27.5 +13.6 42 +29 +29 жарко 1014.6 965.9

 

Местоположение метеостанции Матод (Швейцария): широта 46.75 долгота 6.58 высота над уровнем моря 435 м.

В архиве по умолчанию представлена погода в Матоде за последнюю неделю. Архивные данные за месяц целиком и за предыдущие месяцы, начиная с января 2011 года, Вы можете получить, выбрав интересующий диапазон дат из раскрывающегося списка и нажав кнопку "Ввод!".


*Определитесь, кто Вы:
робот инопланетянин человек

Внимание! Время в таблицах - всемирное. Для получения местного времени необходимо прибавить поправку, которая равна 1 ч.

Смотрите также архив погоды в соседних городах и на ближайших метеорологических станциях:

Погода на Ла-Фрета (Швейцария) (9 км)
Погода в Лозанне (Швейцария) (22 км)
Погода в Ла Бревине (Швейцария) (26 км)
Погода в Пюли (Швейцария) (26 км)
Погода в Пейерне (Швейцария) (29 км)
Погода в Ороне (Швейцария) (30 км)
Погода в Бьере (Швейцария) (31 км)
Погода в Невшателе (Швейцария) (40 км)
Погода на Молезоне (Швейцария) (40 км)
Погода Ла-Шо-де-Фон (Швейцария) (40 км)

Пояснения к столбцам:

Ветер - указаны скорость ветра в м/с - средняя за 10 мин, порывы в срок и между сроками (в фигурных скобках) и направление, откуда дует ветер: С - северный, СВ - северо-восточный, В - восточный, ЮВ - юго-восточный, Ю - южный, ЮЗ - юго-западный, З - западный, СЗ - северо-западный.
Видимость - горизонтальная дальность видимости в метрах или километрах. При видимости от 1 до 10 км при отсутствии осадков обычно наблюдается дымка, при ухудшении видимости до 1 км и менее - туман. В сухую погоду видимость может ухудшаться дымом, пылью или мглою.
Явления - указаны атмосферные явления, наблюдавшиеся в срок или в последний час перед сроком; фигурными скобками обозначены явления, наблюдавшиеся между сроками (за 1-3 часа до срока); квадратными скобками обозначены град или гололедные отложения с указанием их диаметра в мм.
Облачность - указаны через наклонную черту общая и нижняя облачность в баллах и высота нижней границы облаков в метрах; квадратными скобками обозначены формы облаков: Ci - перистые, Cs - перисто-слоистые, Cc - перисто-кучевые, Ac - высококучевые, As - высокослоистые, Sc - слоисто-кучевые, Ns - слоисто-дождевые, Cu - кучевые, Cb - кучево-дождевые. Подробнее классификацию облаков см. в Атласе облаков (PDF).
T - Температура воздуха - температура, измеренная на высоте 2 м над землей.
Td - Температура точки росы - температура, при понижении до которой содержащийся в воздухе водяной пар достигнет насыщения.
f - Относительная влажность воздуха - влажноcть воздуха, измеренная на высоте 2 м над землей.
Te - Эффективная температура - температура, которую ощущает одетый по сезону человек в тени. Характеристика душности погоды. При расчете учитывается влияние влажности воздуха и скорости ветра на теплоощущения человека.
Tes - Эффективная температура на солнце - температура, которую ощущает человек, с поправкой на солнечный нагрев. Характеристика знойности погоды. Зависит от высоты солнца над горизонтом, облачности и скорости ветра. Ночью, в пасмурную погоду, а также при ветре 12 м/с и более поправка равна нулю.
P - Атмосферное давление - приведенное к уровню моря атмосферное давление.
Po - Атмосферное давление - измеренное на уровне метеостанции атмосферное давление.
Tmin - Минимальная температура - минимум температуры воздуха на высоте 2 м над землей.
Tmax - Максимальная температура - максимум температуры воздуха на высоте 2 м над землей.
R - Количество осадков - Количество выпавших осадков за период времени, мм. При наведении курсора мыши на число - период времени, за который выпало указанное количество осадков.
R24 - Количество осадков - Количество выпавших осадков за 24 часа, мм.
S - Снежный покров - Высота снежного покрова, см. При наведении курсора мыши на число - состояние снежного покрова и степень покрытия местности в баллах.